• In Czech Republic
  • List of Countries
  • For 7 days
  • Water Temperature
  • Satellite Maps
  • Weather Map
  • Weather Widgets
  • user-avatar
    Login

    Hourly Weather Adelaide

    Today, 17 October, Tuesday

    Time Temperature Precipitation Wind Pressure Humidity
    00:00 +22°C° 0 mm 4 mps 758 mmHg 39%
    01:00 +22°C° 0 mm 4 mps 758 mmHg 41%
    02:00 +21°C° 0 mm 4 mps 758 mmHg 42%
    03:00 +21°C° 0 mm 4 mps 757 mmHg 41%
    04:00 +21°C° 0 mm 5 mps 758 mmHg 42%
    05:00 +22°C° 0 mm 5 mps 758 mmHg 42%
    06:00 +22°C° 0 mm 5 mps 758 mmHg 43%
    07:00 +24°C° 0 mm 6 mps 758 mmHg 38%
    08:00 +28°C° 0 mm 6 mps 759 mmHg 34%
    09:00 +32°C° 0 mm 7 mps 759 mmHg 26%
    10:00 +32°C° 0 mm 7 mps 758 mmHg 24%
    11:00 +33°C° 0 mm 6 mps 758 mmHg 23%
    12:00 +34°C° 0 mm 6 mps 758 mmHg 22%
    13:00 +34°C° 0 mm 5 mps 757 mmHg 23%
    14:00 +34°C° 0 mm 5 mps 757 mmHg 23%
    15:00 +34°C° 0 mm 4 mps 756 mmHg 24%
    16:00 +31°C° 0 mm 3 mps 756 mmHg 28%
    17:00 +30°C° 0 mm 2 mps 757 mmHg 32%
    18:00 +28°C° 0 mm 2 mps 757 mmHg 36%
    19:00 +27°C° 0 mm 3 mps 757 mmHg 37%
    20:00 +27°C° 0 mm 4 mps 757 mmHg 38%
    21:00 +27°C° 0 mm 5 mps 757 mmHg 36%
    22:00 +26°C° 0 mm 5 mps 757 mmHg 38%
    23:00 +26°C° 0 mm 5 mps 757 mmHg 40%

    Tomorrow, 18 October, Wednesday

    Time Temperature Precipitation Wind Pressure Humidity
    00:00 +25°C° 0 mm 5 mps 757 mmHg 42%
    01:00 +25°C° 0 mm 5 mps 757 mmHg 43%
    02:00 +25°C° 0 mm 5 mps 757 mmHg 44%
    03:00 +25°C° 0 mm 5 mps 757 mmHg 45%
    04:00 +25°C° 0 mm 5 mps 757 mmHg 46%
    05:00 +25°C° 0 mm 5 mps 757 mmHg 47%
    06:00 +25°C° 0 mm 5 mps 757 mmHg 47%
    07:00 +27°C° 0 mm 6 mps 757 mmHg 43%
    08:00 +29°C° 0 mm 6 mps 757 mmHg 39%
    09:00 +32°C° 0 mm 7 mps 758 mmHg 34%
    10:00 +33°C° 0 mm 7 mps 757 mmHg 32%
    11:00 +34°C° 0 mm 6 mps 757 mmHg 30%
    12:00 +35°C° 0 mm 6 mps 756 mmHg 28%
    13:00 +34°C° 0 mm 5 mps 756 mmHg 29%
    14:00 +34°C° 0 mm 5 mps 755 mmHg 30%
    15:00 +34°C° 0 mm 4 mps 755 mmHg 31%
    16:00 +32°C° 0.1 mm 4 mps 755 mmHg 36%
    17:00 +30°C° 0.1 mm 3 mps 755 mmHg 41%
    18:00 +28°C° 0.1 mm 2 mps 755 mmHg 45%
    19:00 +27°C° 0.1 mm 3 mps 756 mmHg 52%
    20:00 +25°C° 0.1 mm 4 mps 756 mmHg 58%
    21:00 +23°C° 0.1 mm 4 mps 757 mmHg 64%
    22:00 +22°C° 0.5 mm 4 mps 757 mmHg 70%
    23:00 +21°C° 0.5 mm 3 mps 757 mmHg 76%

    Day after tomorrow, 19 October, Thursday

    Time Temperature Precipitation Wind Pressure Humidity
    00:00 +20°C° 0.5 mm 2 mps 757 mmHg 82%
    01:00 +20°C° 0.2 mm 2 mps 757 mmHg 83%
    02:00 +20°C° 0.2 mm 2 mps 757 mmHg 85%
    03:00 +20°C° 0.2 mm 3 mps 757 mmHg 86%
    04:00 +19°C° 0.1 mm 3 mps 758 mmHg 87%
    05:00 +19°C° 0.1 mm 4 mps 759 mmHg 88%
    06:00 +19°C° 0.1 mm 5 mps 760 mmHg 89%
    07:00 +19°C° 0 mm 5 mps 761 mmHg 85%
    08:00 +17°C° 0 mm 5 mps 761 mmHg 81%
    09:00 +17°C° 0 mm 5 mps 762 mmHg 77%
    10:00 +20°C° 0 mm 5 mps 762 mmHg 67%
    11:00 +21°C° 0 mm 5 mps 762 mmHg 58%
    12:00 +22°C° 0 mm 5 mps 762 mmHg 49%
    13:00 +22°C° 0 mm 5 mps 762 mmHg 48%
    14:00 +21°C° 0 mm 6 mps 763 mmHg 47%
    15:00 +21°C° 0 mm 6 mps 763 mmHg 46%
    16:00 +20°C° 0 mm 5 mps 763 mmHg 52%
    17:00 +17°C° 0 mm 5 mps 764 mmHg 57%
    18:00 +16°C° 0 mm 5 mps 764 mmHg 63%
    19:00 +15°C° 0 mm 5 mps 765 mmHg 67%
    20:00 +14°C° 0 mm 4 mps 766 mmHg 71%
    21:00 +13°C° 0 mm 4 mps 766 mmHg 75%
    22:00 +12°C° 0 mm 4 mps 766 mmHg 77%
    23:00 +12°C° 0 mm 4 mps 766 mmHg 78%

    20 October, Friday

    Time Temperature Precipitation Wind Pressure Humidity
    00:00 +12°C° 0 mm 4 mps 767 mmHg 80%
    01:00 +12°C° 0 mm 4 mps 767 mmHg 80%
    02:00 +12°C° 0 mm 5 mps 767 mmHg 80%
    03:00 +12°C° 0 mm 5 mps 767 mmHg 80%
    04:00 +12°C° 0 mm 5 mps 767 mmHg 77%
    05:00 +12°C° 0 mm 5 mps 768 mmHg 74%
    06:00 +12°C° 0 mm 5 mps 768 mmHg 72%
    07:00 +14°C° 0 mm 5 mps 768 mmHg 64%
    08:00 +15°C° 0 mm 5 mps 769 mmHg 57%
    09:00 +17°C° 0 mm 5 mps 769 mmHg 49%
    10:00 +17°C° 0 mm 6 mps 769 mmHg 47%
    11:00 +19°C° 0 mm 6 mps 768 mmHg 45%
    12:00 +20°C° 0 mm 6 mps 768 mmHg 43%
    13:00 +20°C° 0 mm 6 mps 768 mmHg 45%
    14:00 +20°C° 0 mm 7 mps 767 mmHg 46%
    15:00 +18°C° 0 mm 7 mps 767 mmHg 48%
    16:00 +17°C° 0 mm 7 mps 767 mmHg 53%
    17:00 +15°C° 0 mm 6 mps 768 mmHg 58%
    18:00 +14°C° 0 mm 6 mps 768 mmHg 64%
    19:00 +13°C° 0 mm 6 mps 769 mmHg 70%
    20:00 +12°C° 0 mm 5 mps 769 mmHg 76%
    21:00 +10°C° 0 mm 5 mps 769 mmHg 81%
    22:00 +10°C° 0 mm 5 mps 769 mmHg 83%
    23:00 +10°C° 0 mm 4 mps 769 mmHg 85%

    21 October, Saturday

    Time Temperature Precipitation Wind Pressure Humidity
    00:00 +10°C° 0 mm 4 mps 769 mmHg 86%
    01:00 +10°C° 0 mm 4 mps 769 mmHg 87%
    02:00 +10°C° 0 mm 4 mps 768 mmHg 87%
    03:00 +10°C° 0 mm 4 mps 768 mmHg 87%
    04:00 +10°C° 0 mm 4 mps 768 mmHg 86%
    05:00 +10°C° 0 mm 3 mps 768 mmHg 84%
    06:00 +10°C° 0 mm 3 mps 769 mmHg 83%
    07:00 +12°C° 0 mm 4 mps 769 mmHg 74%
    08:00 +14°C° 0 mm 4 mps 768 mmHg 65%
    09:00 +17°C° 0 mm 4 mps 768 mmHg 56%
    10:00 +17°C° 0 mm 5 mps 768 mmHg 52%
    11:00 +19°C° 0 mm 5 mps 767 mmHg 49%
    12:00 +20°C° 0 mm 5 mps 767 mmHg 46%
    13:00 +19°C° 0 mm 6 mps 766 mmHg 48%
    14:00 +19°C° 0 mm 6 mps 766 mmHg 50%
    15:00 +17°C° 0 mm 7 mps 765 mmHg 52%
    16:00 +16°C° 0 mm 6 mps 766 mmHg 57%
    17:00 +14°C° 0 mm 6 mps 766 mmHg 62%
    18:00 +13°C° 0 mm 6 mps 766 mmHg 68%
    19:00 +12°C° 0 mm 5 mps 766 mmHg 72%
    20:00 +11°C° 0 mm 4 mps 766 mmHg 76%
    21:00 +11°C° 0 mm 4 mps 766 mmHg 81%
    22:00 +10°C° 0 mm 4 mps 765 mmHg 81%
    23:00 +10°C° 0 mm 3 mps 765 mmHg 82%

    22 October, Sunday

    Time Temperature Precipitation Wind Pressure Humidity
    00:00 +10°C° 0 mm 3 mps 765 mmHg 83%
    01:00 +10°C° 0 mm 3 mps 764 mmHg 83%
    02:00 +10°C° 0 mm 3 mps 764 mmHg 83%
    03:00 +10°C° 0 mm 3 mps 763 mmHg 84%
    04:00 +11°C° 0 mm 3 mps 764 mmHg 82%
    05:00 +11°C° 0 mm 3 mps 764 mmHg 80%
    06:00 +12°C° 0 mm 3 mps 764 mmHg 78%
    07:00 +13°C° 0 mm 4 mps 764 mmHg 71%
    08:00 +14°C° 0 mm 4 mps 764 mmHg 65%
    09:00 +17°C° 0 mm 4 mps 764 mmHg 58%
    10:00 +17°C° 0 mm 4 mps 764 mmHg 57%
    11:00 +17°C° 0 mm 4 mps 763 mmHg 57%
    12:00 +16°C° 0 mm 5 mps 763 mmHg 57%
    13:00 +17°C° 0 mm 5 mps 763 mmHg 57%
    14:00 +17°C° 0 mm 5 mps 762 mmHg 58%
    15:00 +17°C° 0 mm 5 mps 762 mmHg 58%
    16:00 +16°C° 0 mm 5 mps 762 mmHg 64%
    17:00 +15°C° 0 mm 4 mps 762 mmHg 69%
    18:00 +14°C° 0 mm 4 mps 762 mmHg 74%
    19:00 +13°C° 0 mm 4 mps 762 mmHg 78%
    20:00 +12°C° 0 mm 3 mps 762 mmHg 82%
    21:00 +12°C° 0 mm 3 mps 763 mmHg 87%
    22:00 +12°C° 0 mm 3 mps 762 mmHg 88%
    23:00 +12°C° 0 mm 2 mps 762 mmHg 89%
    Show more